Погода в Свирьстрое

Россия / Санкт-Петербург и Ленинградская область     60°47′58″N   33°43′44″E
темп.,
°C
ветер,
м/с
пор.,
м/с
влажн.,
%
обл.,
%
осадки,
мм/ч
давл.,
гПа
погр.,
м
7 марта, вс
вс700:00−5ю71593100 2.5 9901094
03:00−2ююз41097100 6.1 987604
06:00−6з2292100 0.3 98424
09:00−5с1397100 1.3 984176
12:00−4сз3490100 0.9 985539
15:00−6сз5995100 1.4 986695
18:00−6с61194100 2.2 987947
21:00−7ссв61391100 3.1 9901003
8 марта, пн
пн800:00−8ссв61389100 0.2 993881
03:00−10ссв51388100 0.3 998752
06:00−13ссв51388100 0.0 1002628
09:00−16ссв51191100 0.0 1006517
12:00−14ссв489199 0.0 1008500
15:00−12ссв479099 0.0 1011553
18:00−15ссв2793100 0.0 1013199
21:00−21ссв239767 0.0 101534
9 марта, вт
вт900:00−24ссв23970 0.0 101727
03:00−26ссв22970 0.0 101819
06:00−29св22970 0.0 101920
09:00−27св24960 0.0 1021156
12:00−20св238723 0.0 1022361
15:00−16св238121 0.0 1023440
18:00−19св12910 0.0 102320
21:00−23всв11920 0.0 102420
10 марта, ср
ср1000:00−24св11940 0.0 102520
03:00−25в01920 0.0 102620
06:00−26всв00920 0.0 102620
09:00−22юз01890 0.0 102728
12:00−15з118153 0.0 1027222
15:00−12з238375 0.0 1026311
18:00−15з1293100 0.0 102621
21:00−19з118997 0.0 102620
11 марта, чт
чт1100:00−21юз118536 0.0 102520
03:00−22ююв118118 0.0 102520
06:00−21юв22820 0.0 102420
09:00−17юв24830 0.0 1023106
12:00−9юв37770 0.0 1020415
15:00−7юв510720 0.0 1016856
18:00−9ююв4128629 0.0 1013661
21:00−10ююв5139059 0.0 1009508